AE7RN Weather Reports


time (UTC)temp
F
wind
direction
speed
knots
gust
knots
rain 1hr
in
rain 24hr
in
rain mn
in
humidity
%
barometer
mb
20260502210122 72 268 2.6 8.7 0.00 0.00 0.00 20 1013.9
20260502200122 68 320 5.2 9.6 0.00 0.00 0.00 22 1014.5
20260502193121 68 245 1.7 9.6 0.00 0.00 0.00 24 1014.9
20260502190120 68 305 2.6 7.0 0.00 0.00 0.00 25 1015.3
20260502183120 67 323 5.2 7.0 0.00 0.00 0.00 26 1015.6
20260502180156 65 9 1.7 8.7 0.00 0.00 0.00 28 1016.0
20260502163148 58 270 0.0 5.2 0.00 0.00 0.00 34 1016.6
20260502160147 55 255 1.7 4.3 0.00 0.00 0.00 43 1016.7
20260502150146 48 316 0.9 4.3 0.00 0.00 0.00 58 1016.7
20260502130144 35 181 0.0 6.1 0.00 0.00 0.00 71 1016.5
20260502120143 35 177 0.0 3.5 0.00 0.00 0.00 68 1016.6
20260502113142 36 155 0.9 5.2 0.00 0.00 0.00 66 1017.1
20260502110142 37 113 2.6 2.6 0.00 0.00 0.00 64 1016.9
20260502100141 38 169 0.9 4.3 0.00 0.00 0.00 62 1016.6
20260502090140 41 132 0.0 1.7 0.00 0.00 0.00 60 1016.9
20260502070138 42 180 0.0 2.6 0.00 0.00 0.00 57 1016.4
20260502063137 43 179 1.7 5.2 0.00 0.00 0.00 55 1016.3
20260502060137 44 186 0.0 1.7 0.00 0.00 0.00 53 1016.3
20260502053136 45 186 0.0 5.2 0.00 0.00 0.00 53 1015.9
20260502050135 49 271 0.9 2.6 0.00 0.00 0.00 46 1016.7
20260502043135 50 150 0.0 1.7 0.00 0.00 0.00 42 1016.0
20260502040136 53 150 0.0 4.3 0.00 0.00 0.00 39 1016.5
20260502033134 56 134 0.9 3.5 0.00 0.00 0.00 33 1015.8
20260502030133 59 131 2.6 4.3 0.00 0.00 0.00 30 1016.1
20260502023133 63 116 1.7 5.2 0.00 0.00 0.00 25 1015.5
20260502020132 66 72 1.7 5.2 0.00 0.00 0.00 23 1016.2
20260502013132 68 78 2.6 6.1 0.00 0.00 0.00 21 1015.6
20260502010132 69 50 2.6 5.2 0.00 0.00 0.00 18 1015.9
20260502003131 70 40 0.0 4.3 0.00 0.00 0.00 19 1015.3
20260501233130 69 226 1.7 8.7 0.00 0.00 0.00 15 1015.6
20260501230129 69 238 1.7 7.8 0.00 0.00 0.00 16 1015.9
20260501223129 69 106 5.2 9.6 0.00 0.00 0.00 20 1016.2
20260501220128 69 90 0.9 7.8 0.00 0.00 0.00 20 1016.7